Flag for Switzerland Weather past 2 weeks in Horw, Lucerne, Switzerland

Now
56 °F

Cool.


Feels Like: 56 °F
Forecast: 45 / 65 °F
Wind: 1 mph from South

Location: Giswil

Current Time: Sep 4, 2015 at 4:05:45 AM

Latest Report: Sep 4, 2015 at 3:00 AM


Visibility: N/A

Pressure: 30.04 "Hg

Humidity: 99%

Dew point: 56 °F

Location of HorwLocation

Historic Weather in Horw — Graph

°F

Horw temperature yesterday

Maximum temperature yesterday: 62 °F (at 12:00 PM)
Minimum temperature yesterday: 57 °F (at 7:00 AM)
Average temperature yesterday: 60 °F

Past Weeks' High & Low Weather Summary

 TemperatureHumidityPressure
High89 °F (Aug 30, 3:00 PM)100% (Aug 21, 3:00 AM)30.29 "Hg (Aug 21, 3:00 AM)
Low47 °F (Aug 20, 7:00 AM)31% (Aug 30, 4:00 PM)29.70 "Hg (Aug 24, 2:00 PM)
Average64 °F80%30.02 "Hg
* Reported Aug 20 2:00 AM — Sep 4 2:00 AM, Horw, Weather by CustomWeather, © 2015

Note: Actual official high and low records may vary slightly from our data, if they occured in-between our weather recording intervals... More about our weather records

Advertising

Horw weather history for previous 24 hours

 ConditionsComfort  
Time TempWeatherWind HumidityBarometerVisibility
2:00 AM
Fri, Sep 4
56 °FCool.2 mph98%30.05 "HgN/A
1:00 AM56 °FCool.No wind99%30.04 "HgN/A
12:00 AM57 °FCool.1 mph98%30.03 "HgN/A
10:00 PM
Thu, Sep 3
60 °FCool.2 mph81%30.01 "HgN/A
9:00 PM58 °FCool.1 mph95%30.00 "HgN/A
8:00 PM59 °FCool.2 mph87%29.98 "HgN/A
7:00 PM61 °FCool.2 mph80%29.96 "HgN/A
6:00 PM62 °FCool.1 mph74%29.96 "HgN/A
5:00 PM62 °FCool.1 mph74%29.97 "HgN/A
4:00 PM61 °FCool.No wind84%29.98 "HgN/A
3:00 PM61 °FCool.1 mph74%29.98 "HgN/A
2:00 PM61 °FCool.2 mph73%29.99 "HgN/A
1:00 PM61 °FCool.1 mph79%29.97 "HgN/A
12:00 PM62 °FMild.2 mph68%29.96 "HgN/A
11:00 AM62 °FCool.5 mph77%29.96 "HgN/A
10:00 AM62 °FCool.1 mph81%29.97 "HgN/A
9:00 AM60 °FCool.No wind90%29.97 "HgN/A
8:00 AM59 °FCool.1 mph96%29.97 "HgN/A
7:00 AM57 °FCool.2 mph99%29.97 "HgN/A
5:00 AM58 °FCool.1 mph98%29.97 "HgN/A
4:00 AM58 °FCool.2 mph97%29.97 "HgN/A
Weather by CustomWeather, © 2015

See weather overviewHow to use our weather pages